Date,TemperatureHighF,TemperatureAvgF,TemperatureLowF,DewpointHighF,DewpointAvgF,DewpointLowF,HumidityHigh,HumidityAvg,HumidityLow,PressureMaxIn,PressureMinIn,WindSpeedMaxMPH,WindSpeedAvgMPH,GustSpeedMaxMPH,PrecipitationSumIn
2013-1-1,40.0,36.3,27.0,32.0,25.3,14.0,78,63,49,29.74,29.59,15,3,16,0.02
2013-1-2,32.0,26.3,21.0,21.0,15.7,11.0,74,62,52,29.91,29.73,15,3,15,0.00
2013-1-3,32.0,25.3,21.0,21.0,18.4,16.0,86,74,50,29.94,29.80,10,2,10,0.00
2013-1-4,39.0,31.3,23.0,26.0,23.2,18.0,94,71,49,29.83,29.69,19,2,19,0.00
2013-1-5,44.0,33.9,27.0,28.0,23.4,21.0,92,66,44,30.02,29.73,14,2,14,0.00
2013-1-6,47.0,36.5,32.0,37.0,32.1,26.0,99,84,55,29.98,29.75,11,2,11,0.00
2013-1-7,46.0,35.9,27.0,36.0,28.3,21.0,100,76,40,30.15,29.78,13,2,13,0.00
2013-1-8,50.0,37.6,27.0,41.0,33.5,28.0,100,87,52,30.21,30.11,16,2,17,0.00
2013-1-9,49.0,40.7,29.0,46.0,37.3,29.0,100,88,68,30.16,29.90,11,2,13,0.00
2013-1-10,49.0,41.4,33.0,36.0,27.3,21.0,78,57,35,30.30,29.97,13,2,13,0.00
2013-1-11,48.0,39.9,31.0,44.0,35.1,26.0,96,83,70,30.29,29.89,10,1,10,0.37
2013-1-12,48.0,44.5,43.0,41.0,38.0,37.0,81,78,75,29.95,29.83,12,2,13,0.14
2013-1-13,49.0,44.4,40.0,42.0,38.0,35.0,81,78,72,29.95,29.81,10,3,10,0.02
2013-1-14,58.0,49.2,36.0,56.5,43.0,32.0,98,79,66,30.04,29.73,12,3,13,0.08
2013-1-15,39.0,36.6,34.0,36.0,32.0,29.0,98,83,70,30.10,29.96,10,2,10,0.15
2013-1-16,37.0,35.0,33.0,35.0,30.5,28.0,98,82,79,29.99,29.54,12,2,12,0.85
2013-1-17,43.0,38.0,33.0,37.0,30.3,24.0,98,73,52,29.87,29.67,15,2,15,0.00
2013-1-18,34.0,26.0,20.0,26.0,13.4,8.0,74,57,37,30.24,29.76,16,3,18,0.00
2013-1-19,49.0,40.2,22.0,41.0,30.7,16.0,89,69,51,30.17,29.73,23,7,24,0.00
2013-1-20,56.0,43.8,29.0,38.0,26.6,11.0,83,53,21,29.77,29.48,25,5,25,0.00
2013-1-21,33.0,27.3,20.0,29.0,17.9,11.0,100,68,43,29.85,29.57,13,2,13,0.00
2013-1-22,26.0,19.1,11.0,26.0,7.3,-6.0,100,56,37,29.91,29.55,18,4,20,0.00
2013-1-23,20.0,13.2,9.0,4.0,0.8,-6.0,70,53,39,29.99,29.89,15,3,17,0.00
2013-1-24,23.0,14.4,6.0,11.0,4.7,0.0,100,63,34,30.11,29.87,20,4,20,0.00
2013-1-25,24.0,17.2,10.0,21.0,10.5,4.0,100,73,40,30.14,29.80,11,2,12,0.00
2013-1-26,26.0,19.6,15.0,18.0,12.8,4.0,100,73,46,30.09,29.77,17,4,17,0.00
2013-1-27,34.0,21.4,10.0,21.0,12.3,8.0,100,67,32,30.25,30.09,13,1,15,0.00
2013-1-28,35.0,29.4,20.0,33.0,24.7,14.0,99,82,57,30.24,29.77,13,2,13,0.18
2013-1-29,47.0,38.3,34.0,43.0,34.6,29.0,97,86,78,29.94,29.75,10,1,10,0.04
2013-1-30,55.0,50.2,41.0,45.0,40.2,35.0,78,69,60,29.89,29.26,23,6,25,0.00
2013-1-31,57.0,45.3,28.0,50.0,28.0,11.0,92,51,33,29.51,28.89,34,6,34,0.23
2013-2-1,32.0,27.6,22.0,16.0,10.7,4.0,59,46,33,29.96,29.51,17,4,22,0.00
2013-2-2,29.0,24.1,17.0,24.0,12.8,8.0,100,61,43,30.05,29.82,16,3,16,0.00
2013-2-3,31.0,24.9,19.0,26.0,21.4,14.0,100,86,55,29.82,29.53,10,1,10,0.03
2013-2-4,32.0,25.6,21.0,26.0,13.9,8.0,100,60,38,29.74,29.54,21,3,21,0.00
2013-2-5,30.0,27.9,25.0,31.0,27.3,14.0,100,96,60,29.74,29.66,10,1,10,0.01
2013-2-6,40.0,32.5,28.0,33.0,22.2,8.0,98,67,38,30.10,29.67,16,3,16,0.03
2013-2-7,33.0,27.2,22.0,26.0,13.0,4.0,85,54,36,30.27,30.09,12,1,12,0.00
2013-2-8,34.0,31.6,24.0,35.0,27.3,21.0,99,83,77,30.11,29.31,20,2,24,0.46
2013-2-9,28.0,24.1,18.0,26.0,18.0,8.0,100,75,50,30.05,29.43,28,4,28,0.00
2013-2-10,37.0,23.3,13.0,26.0,13.8,4.0,100,67,32,30.23,30.05,13,2,16,0.09
2013-2-11,46.0,38.5,26.0,35.0,31.8,26.0,100,77,62,30.10,29.44,17,2,17,1.28
2013-2-12,46.0,38.6,29.0,36.0,29.6,26.0,97,70,48,29.73,29.48,15,2,16,0.00
2013-2-13,47.0,33.9,24.0,35.0,27.4,23.0,100,78,43,29.70,29.44,10,1,11,0.00
2013-2-14,47.0,35.7,27.0,35.0,28.1,23.0,98,75,40,29.77,29.46,10,2,11,0.04
2013-2-15,48.0,39.3,32.0,42.0,33.3,24.0,95,79,66,29.81,29.70,15,3,15,0.00
2013-2-16,40.0,34.2,27.0,37.0,29.1,23.0,100,81,57,29.72,29.44,15,4,16,0.01
2013-2-17,32.0,24.5,15.0,28.0,11.1,4.0,100,57,30,29.67,29.34,23,6,24,0.01
2013-2-18,35.0,23.1,16.0,16.0,9.8,8.0,69,54,33,29.97,29.66,20,4,20,0.00
2013-2-19,47.0,40.1,26.0,43.0,32.5,16.0,100,74,61,29.97,29.44,18,4,18,0.26
2013-2-20,39.0,30.6,23.0,35.0,17.9,11.0,88,58,41,29.70,29.45,21,4,21,0.00
2013-2-21,35.0,26.9,21.0,21.0,15.4,11.0,76,60,43,30.02,29.68,21,5,21,0.00
2013-2-22,39.0,31.3,23.0,32.0,25.5,18.0,97,79,54,30.14,29.99,19,2,19,0.00
2013-2-23,42.0,37.5,35.0,37.0,32.0,26.0,98,81,68,30.05,29.55,13,2,15,0.33
2013-2-24,45.0,37.6,31.0,41.0,31.8,26.0,99,80,64,29.69,29.48,16,4,16,0.01
2013-2-25,50.0,37.4,25.0,36.0,29.9,24.0,100,76,40,30.00,29.69,10,2,10,0.01
2013-2-26,44.0,38.5,36.0,38.0,35.2,29.0,98,87,64,30.09,29.69,15,1,15,0.12
2013-2-27,48.0,43.6,36.0,41.0,33.6,28.0,96,69,58,29.70,29.30,17,2,20,1.22
2013-2-28,49.0,41.6,37.0,45.0,37.4,32.0,95,85,69,29.40,29.32,8,1,9,0.29
2013-3-1,46.0,39.6,33.0,38.0,32.2,28.0,96,75,53,29.52,29.34,13,3,13,0.00
2013-3-2,42.0,36.5,31.0,33.0,27.9,24.0,99,70,52,29.52,29.44,17,4,17,0.00
2013-3-3,38.0,32.7,29.0,32.0,24.8,21.0,100,72,49,29.47,29.41,16,4,16,0.00
2013-3-4,43.0,33.5,27.0,24.0,21.9,18.0,76,61,41,29.61,29.46,22,5,22,0.00
2013-3-5,51.0,38.4,29.0,33.0,26.8,23.0,87,64,37,29.80,29.61,15,4,15,0.00
2013-3-6,42.0,38.1,34.0,39.0,35.6,32.0,98,90,72,29.77,29.61,25,4,27,0.07
2013-3-7,37.0,33.3,31.0,36.0,28.5,24.0,98,83,72,29.79,29.63,25,5,25,0.40
2013-3-8,38.0,33.2,30.0,36.0,25.9,23.0,98,74,67,29.90,29.70,15,4,16,0.44
2013-3-9,55.0,39.7,29.0,36.0,27.9,23.0,99,66,29,30.08,29.89,14,3,15,0.50
2013-3-10,48.0,36.3,25.0,39.0,31.4,21.0,98,81,64,30.18,30.07,7,2,10,0.01
2013-3-11,53.0,44.6,37.0,49.0,40.7,32.0,95,86,63,30.10,29.90,13,3,14,0.00
2013-3-12,52.0,49.9,44.0,49.0,38.8,32.0,95,67,50,29.91,29.50,20,6,21,0.69
2013-3-13,53.0,42.7,31.0,43.0,30.9,23.0,95,66,38,29.66,29.57,15,3,15,0.00
2013-3-14,38.0,33.6,29.0,32.0,16.1,8.0,87,48,29,29.68,29.60,19,5,22,0.00
2013-3-15,45.0,36.2,27.0,31.0,18.8,8.0,65,48,29,29.71,29.50,20,4,22,0.00
2013-3-16,40.0,34.2,29.0,33.0,26.3,21.0,98,73,51,29.65,29.54,12,2,12,0.05
2013-3-17,38.0,31.8,24.0,31.0,20.5,11.0,100,64,42,30.05,29.65,15,2,15,0.03
2013-3-18,39.0,31.5,23.0,33.0,19.1,11.0,97,59,37,30.17,29.80,14,2,14,0.05
2013-3-19,40.0,36.1,33.0,38.0,28.1,24.0,96,73,60,29.80,29.42,16,3,17,0.95
2013-3-20,48.0,37.0,28.0,33.0,22.1,16.0,96,56,32,29.64,29.54,18,2,18,0.00
2013-3-21,37.0,31.3,25.0,32.0,28.1,23.0,99,87,59,29.60,29.39,13,2,13,0.04
2013-3-22,44.0,33.5,24.0,24.0,20.9,16.0,87,59,35,29.61,29.45,17,3,17,0.04
2013-3-23,48.0,37.7,28.0,24.0,21.3,16.0,84,53,32,29.66,29.55,22,4,22,0.00
2013-3-24,48.0,37.3,26.0,31.0,23.7,21.0,86,59,36,29.71,29.49,14,2,14,0.00
2013-3-25,42.0,36.7,34.0,38.0,32.3,28.0,97,84,65,29.50,29.21,19,2,19,0.11
2013-3-26,54.0,41.1,34.0,35.0,30.6,24.0,99,69,34,29.61,29.32,14,2,14,0.00
2013-3-27,54.0,42.2,30.0,31.0,26.9,18.0,96,59,29,29.71,29.59,15,2,16,0.00
2013-3-28,52.0,42.8,34.0,35.0,32.0,29.0,91,66,46,29.86,29.69,15,4,15,0.00
2013-3-29,59.0,47.2,38.0,35.0,29.8,24.0,74,52,29,29.92,29.84,16,3,16,0.00
2013-3-30,58.0,45.1,30.0,39.0,30.3,21.0,100,61,23,29.95,29.86,14,2,15,0.00
2013-3-31,54.0,44.6,34.0,45.0,35.5,28.0,95,71,47,29.91,29.43,18,3,18,0.15
2013-4-1,58.0,46.8,37.0,52.0,35.8,14.0,94,66,35,29.65,29.42,16,4,16,0.09
2013-4-2,45.0,36.9,27.0,21.0,14.4,11.0,69,39,24,29.82,29.65,20,3,21,0.01
2013-4-3,47.0,38.0,28.0,16.0,13.5,11.0,56,36,23,30.03,29.81,18,4,20,0.00
2013-4-4,48.0,38.3,25.0,36.0,22.9,14.0,86,54,32,30.16,29.88,16,4,16,0.00
2013-4-5,65.0,48.5,40.0,41.0,30.1,16.0,95,57,18,29.88,29.52,15,4,15,0.00
2013-4-6,52.0,40.7,34.0,32.0,18.3,4.0,86,43,15,30.10,29.73,16,4,18,0.00
2013-4-7,52.0,44.3,34.0,47.0,38.5,31.0,98,82,57,30.09,29.81,24,6,24,0.00
2013-4-8,69.0,54.4,42.0,51.0,42.6,31.0,93,67,37,29.91,29.77,13,3,13,0.00
2013-4-9,82.0,63.4,48.0,57.5,42.2,35.0,91,51,22,29.84,29.73,19,3,19,0.00
2013-4-10,73.0,57.9,50.0,56.0,49.4,39.0,94,75,48,29.84,29.63,19,3,19,0.18
2013-4-11,63.0,52.7,46.0,54.0,42.2,33.0,93,69,49,29.86,29.59,13,2,13,0.14
2013-4-12,47.0,42.6,40.0,42.0,33.9,28.0,94,71,60,29.86,29.49,19,3,20,0.71
2013-4-13,60.0,46.4,37.0,45.0,36.2,28.0,94,69,39,29.77,29.50,14,4,15,0.11
2013-4-14,59.0,50.2,44.0,49.0,32.6,26.0,93,53,30,30.02,29.76,19,3,19,0.00
2013-4-15,56.0,46.7,38.0,42.0,33.0,28.0,93,61,40,30.18,30.01,11,2,12,0.00
2013-4-16,61.0,52.0,41.0,56.0,47.3,35.0,93,84,71,30.20,29.96,19,5,19,0.00
2013-4-17,69.0,58.3,49.0,50.0,39.8,29.0,92,55,25,30.11,29.93,14,3,14,0.01
2013-4-18,60.0,51.9,42.0,50.5,42.9,32.0,92,73,48,30.20,29.94,17,3,17,0.00
2013-4-19,67.0,58.5,54.0,63.0,40.3,33.0,88,51,40,29.94,29.52,28,7,28,0.06
2013-4-20,61.0,53.4,47.0,49.0,30.3,23.0,90,42,30,30.05,29.49,19,3,21,0.23
2013-4-21,57.0,44.3,35.0,33.0,25.2,18.0,77,48,24,30.42,30.05,15,4,15,0.00
2013-4-22,58.0,45.5,33.0,39.0,32.9,26.0,96,65,33,30.47,30.28,14,2,16,0.00
2013-4-23,48.0,43.4,40.0,46.0,40.3,32.0,94,89,72,30.28,29.86,16,4,16,0.00
2013-4-24,63.0,50.1,41.0,51.0,38.9,24.0,92,68,35,29.87,29.69,20,5,20,0.00
2013-4-25,67.0,54.6,46.0,49.0,31.9,21.0,92,45,20,30.07,29.69,17,4,17,0.02
2013-4-26,68.0,53.2,38.0,49.0,35.1,21.0,92,54,29,30.21,30.06,12,2,12,0.00
2013-4-27,69.0,53.2,41.0,47.5,35.2,23.0,91,55,18,30.25,30.12,12,2,12,0.00
2013-4-28,64.0,53.4,43.0,50.5,35.7,23.0,91,55,29,30.16,30.04,13,3,13,0.00
2013-4-29,61.0,54.9,52.0,50.5,46.6,38.0,91,75,49,30.08,30.03,13,2,13,0.00
2013-4-30,66.0,56.3,44.0,51.0,36.9,21.0,92,55,19,30.16,30.02,13,2,13,0.00
2013-5-1,67.0,53.6,40.0,48.0,41.5,28.0,92,66,38,30.30,30.12,12,2,12,0.00
2013-5-2,70.0,55.1,40.0,55.0,39.4,24.0,91,57,35,30.30,30.16,11,2,11,0.00
2013-5-3,67.0,54.3,45.0,49.0,42.7,36.0,91,67,32,30.29,30.17,13,2,15,0.00
2013-5-4,67.0,51.7,41.0,47.5,38.4,23.0,91,62,39,30.17,30.08,13,2,13,0.00
2013-5-5,66.0,49.9,40.0,47.0,39.8,26.0,91,70,37,30.12,30.05,13,2,13,0.00
2013-5-6,70.0,55.0,44.0,53.0,44.5,29.0,92,69,50,30.10,29.97,9,2,9,0.00
2013-5-7,75.0,59.3,45.0,63.0,46.2,23.0,89,64,30,30.01,29.93,10,2,10,0.00
2013-5-8,66.0,59.3,53.0,50.5,34.5,24.0,73,40,25,29.95,29.83,12,2,15,0.23
2013-5-9,66.0,57.6,52.0,61.5,32.7,18.0,87,42,19,29.84,29.71,10,1,10,0.10
2013-5-10,78.0,63.7,51.0,66.7,43.0,16.0,89,50,17,29.86,29.75,11,2,11,0.03
2013-5-11,65.0,60.4,58.0,55.0,29.5,14.0,82,34,16,29.75,29.53,13,3,13,0.49
2013-5-12,72.0,61.8,52.0,60.0,29.5,14.0,89,32,17,29.72,29.48,21,2,21,0.03
2013-5-13,60.0,50.8,41.0,35.0,29.6,24.0,78,45,28,29.87,29.72,15,2,15,0.00
2013-5-14,62.0,49.6,37.0,45.0,34.8,24.0,93,63,26,29.93,29.85,11,2,11,0.00
2013-5-15,63.0,54.8,44.0,58.0,46.4,32.0,90,75,43,29.87,29.52,16,3,16,0.00
2013-5-16,77.0,63.1,54.0,62.5,38.7,14.0,90,45,15,29.65,29.51,15,2,17,0.00
2013-5-17,74.0,61.3,50.0,50.5,42.8,36.0,89,54,29,30.02,29.64,13,1,13,0.00
2013-5-18,69.0,58.1,47.0,58.0,43.6,28.0,92,61,33,30.17,30.01,13,1,13,0.08
2013-5-19,58.0,56.3,55.0,47.5,25.6,14.0,74,33,17,30.17,30.01,11,2,11,0.27
2013-5-20,77.0,65.2,57.0,71.7,33.7,8.0,89,38,8,30.01,29.81,11,2,11,0.00
2013-5-21,80.0,69.1,60.0,74.0,40.6,-13.0,87,47,3,29.84,29.71,12,2,12,0.00
2013-5-22,78.0,64.7,57.0,73.0,37.0,4.0,100,48,10,29.79,29.72,10,2,10,0.03
2013-5-23,73.0,65.8,63.0,73.0,57.8,8.0,100,85,11,29.79,29.64,18,5,18,0.18
2013-5-24,69.0,58.4,47.0,61.5,25.6,-6.0,94,37,5,29.69,29.52,16,3,16,0.54
2013-5-25,50.0,46.5,44.0,47.5,27.7,14.0,96,53,26,29.75,29.63,18,4,19,1.00
2013-5-26,67.0,54.2,45.0,47.0,41.4,36.0,95,66,34,29.99,29.71,23,2,23,0.01
2013-5-27,73.0,58.4,43.0,54.0,42.0,31.0,95,62,24,30.08,29.97,13,2,13,0.00
2013-5-28,72.0,58.1,49.0,59.0,32.2,4.0,92,44,10,30.09,29.97,11,1,11,0.43
2013-5-29,75.0,64.6,57.0,71.3,36.6,-13.0,92,50,4,29.98,29.87,9,2,9,0.45
2013-5-30,92.0,75.3,62.0,69.3,62.8,59.0,96,69,38,30.02,29.91,10,2,10,0.00
2013-5-31,92.0,75.8,63.0,69.0,63.4,61.0,96,69,38,30.01,29.87,10,2,10,0.00
2013-6-1,85.0,73.1,63.0,67.5,64.3,61.5,96,76,52,29.91,29.80,13,3,13,0.00
2013-6-2,79.0,69.9,63.0,66.7,63.2,61.5,97,80,60,29.80,29.67,15,4,15,0.00
2013-6-3,76.0,67.8,64.0,69.7,65.0,54.0,98,91,64,29.71,29.66,8,2,9,0.38
2013-6-4,78.0,65.6,55.0,54.5,45.7,39.0,83,51,27,29.92,29.70,13,2,15,0.00
2013-6-5,78.0,64.2,52.0,55.0,46.8,39.0,92,58,26,30.07,29.92,9,1,10,0.00
2013-6-6,74.0,63.9,55.0,63.5,54.4,46.0,98,74,41,30.01,29.87,10,2,11,0.00
2013-6-7,62.0,60.3,58.0,61.0,58.5,56.0,98,94,84,29.87,29.46,13,1,13,2.29
2013-6-8,78.0,65.7,55.0,65.5,60.5,54.5,98,84,60,29.88,29.37,15,2,15,2.78
2013-6-9,81.0,69.7,59.0,66.3,58.2,53.5,97,70,41,30.05,29.88,10,1,12,0.00
2013-6-10,74.0,64.6,61.0,66.0,61.9,59.0,96,91,73,30.01,29.70,12,1,12,1.37
2013-6-11,81.0,70.9,65.0,70.0,65.6,57.5,96,84,58,29.70,29.46,12,2,12,0.54
2013-6-12,78.0,69.2,60.0,57.5,53.1,49.0,82,58,37,29.69,29.52,16,3,19,0.00
2013-6-13,65.0,60.9,56.0,60.0,56.9,53.0,95,87,75,29.67,29.31,14,2,17,0.60
2013-6-14,75.0,59.9,53.0,59.0,53.2,49.0,96,81,46,29.68,29.31,16,2,17,0.62
2013-6-15,83.0,68.7,56.0,59.5,52.9,41.0,94,63,27,29.86,29.68,13,1,17,0.00
2013-6-16,79.0,68.5,57.0,65.5,59.5,51.0,93,75,40,29.83,29.63,10,2,10,0.00
2013-6-17,86.0,73.9,64.0,68.0,64.2,61.0,95,74,48,29.78,29.69,13,2,14,0.00
2013-6-18,83.0,70.5,62.0,69.0,64.4,60.0,96,83,51,29.78,29.68,13,1,13,0.20
2013-6-19,82.0,67.0,58.0,60.5,53.8,41.0,95,67,29,29.99,29.71,13,2,13,0.00
2013-6-20,80.0,67.1,55.0,60.0,54.3,49.0,95,67,38,30.14,29.99,12,2,12,0.00
2013-6-21,81.0,69.5,59.0,59.0,55.1,49.0,92,63,35,30.18,30.10,13,2,13,0.00
2013-6-22,83.0,70.2,60.0,63.5,59.2,53.5,95,71,38,30.14,30.01,11,2,12,0.00
2013-6-23,85.0,73.9,63.0,71.3,65.2,57.5,92,75,54,30.08,29.94,12,2,12,0.00
2013-6-24,95.0,79.6,70.0,73.3,68.1,59.5,96,71,35,29.94,29.83,13,1,13,0.00
2013-6-25,92.0,80.3,69.0,71.3,66.8,62.5,87,65,38,29.86,29.68,14,1,14,0.00
2013-6-26,89.0,79.4,73.0,70.0,67.0,63.5,87,67,45,29.73,29.63,11,2,11,0.00
2013-6-27,86.0,76.3,71.0,72.0,69.6,66.7,95,80,59,29.69,29.47,13,2,13,0.02
2013-6-28,85.0,76.3,72.0,72.0,70.4,68.5,95,83,63,29.47,29.37,16,3,16,0.00
2013-6-29,83.0,73.7,68.0,71.3,68.4,65.5,95,84,64,29.58,29.35,12,2,13,0.01
2013-6-30,80.0,72.5,68.0,72.7,70.0,66.7,97,92,79,29.80,29.58,11,2,11,0.01
2013-7-1,77.0,72.9,71.0,73.7,71.3,69.7,97,94,87,29.94,29.78,13,2,13,0.36
2013-7-2,81.0,73.9,71.0,73.3,71.0,68.5,96,90,74,30.06,29.94,12,3,13,0.01
2013-7-3,84.0,74.8,69.0,73.7,70.8,67.0,97,88,68,30.14,30.05,12,2,12,0.01
2013-7-4,89.0,77.8,71.0,75.0,71.8,69.3,97,83,59,30.14,30.05,10,2,10,0.01
2013-7-5,91.0,79.2,70.0,75.0,71.3,68.5,95,78,56,30.11,29.97,7,2,15,0.00
2013-7-6,92.0,81.8,73.0,75.0,71.9,69.3,93,74,49,30.03,29.90,9,1,9,0.00
2013-7-7,91.0,81.7,74.0,75.0,72.2,69.3,93,74,52,29.95,29.81,10,1,10,0.00
2013-7-8,90.0,80.2,71.0,72.3,67.9,65.0,88,68,45,29.92,29.82,10,2,10,0.00
2013-7-9,87.0,77.9,69.0,72.7,69.6,65.0,92,77,52,29.97,29.87,10,1,11,0.02
2013-7-10,87.0,78.2,72.0,74.7,72.0,69.7,94,82,63,29.89,29.69,12,2,13,0.00
2013-7-11,84.0,76.5,72.0,74.7,71.2,66.3,94,84,62,29.78,29.67,7,1,7,0.10
2013-7-12,77.0,71.6,67.0,69.7,66.8,64.5,96,85,74,29.96,29.77,13,1,13,0.68
2013-7-13,83.0,74.3,68.0,76.3,71.6,66.7,97,92,79,30.15,29.96,7,1,7,0.07
2013-7-14,91.0,79.5,72.0,76.8,72.4,69.3,97,80,52,30.21,30.10,12,1,12,0.00
2013-7-15,96.0,83.8,74.0,74.0,71.0,68.0,91,68,42,30.12,30.02,10,1,10,0.00
2013-7-16,96.0,83.1,72.0,72.0,67.2,60.0,89,63,33,30.08,30.00,9,1,9,0.00
2013-7-17,96.0,83.0,72.0,72.0,69.5,61.0,91,67,33,30.09,29.94,8,1,8,0.00
2013-7-18,99.0,85.3,75.0,76.0,72.0,66.0,88,68,39,29.95,29.84,8,1,9,0.00
2013-7-19,95.0,84.7,78.0,78.0,74.8,72.0,92,75,54,29.86,29.69,9,2,9,0.00
2013-7-20,94.0,82.5,74.0,76.0,72.5,69.0,94,75,51,29.71,29.62,7,2,9,0.23
2013-7-21,90.0,78.5,72.0,73.0,67.0,60.0,93,71,41,29.84,29.70,9,1,9,0.00
2013-7-22,87.0,76.9,71.0,75.0,71.4,68.0,95,85,61,29.84,29.69,8,1,8,0.02
2013-7-23,87.0,77.8,70.0,76.0,72.2,68.0,97,85,63,29.69,29.44,9,2,9,0.45
2013-7-24,87.0,76.3,69.0,74.0,66.9,57.0,97,75,51,29.77,29.46,9,1,9,0.01
2013-7-25,70.0,63.8,61.0,60.0,57.0,51.0,95,80,64,29.89,29.77,9,2,9,0.18
2013-7-26,80.0,67.5,61.0,66.0,62.4,59.0,97,85,54,29.90,29.79,9,1,9,0.20
2013-7-27,84.0,73.1,64.0,69.0,65.2,60.0,97,79,47,29.95,29.83,9,2,9,0.00
2013-7-28,82.0,72.4,65.0,71.0,67.0,61.0,97,85,52,29.87,29.79,9,1,9,0.00
2013-7-29,88.0,77.0,69.0,75.0,67.2,54.0,97,75,45,29.93,29.81,9,1,9,0.03
2013-7-30,86.0,72.3,60.0,62.0,56.2,52.0,93,61,33,30.03,29.92,9,1,9,0.00
2013-7-31,84.0,72.0,61.0,64.0,60.2,55.0,94,69,40,30.03,29.91,8,1,8,0.00
2013-8-1,78.0,69.5,66.0,69.0,65.4,62.0,95,88,68,29.91,29.69,11,1,11,0.21
2013-8-2,87.0,74.7,68.0,69.0,64.3,54.0,96,74,38,29.78,29.63,10,1,12,0.06
2013-8-3,81.0,71.0,67.0,68.0,64.6,61.0,90,81,57,29.77,29.71,9,1,9,0.02
2013-8-4,85.0,71.8,63.0,64.0,57.8,50.0,96,66,33,29.78,29.69,17,1,17,0.00
2013-8-5,82.0,68.3,57.0,58.0,50.7,42.0,88,58,27,29.91,29.78,14,2,14,0.00
2013-8-6,83.0,69.9,60.0,69.0,57.8,53.0,100,69,40,29.99,29.88,13,1,13,0.00
2013-8-7,82.0,71.1,61.0,66.0,61.1,55.0,90,72,49,30.03,29.95,13,2,13,0.00
2013-8-8,79.0,72.5,67.0,72.0,68.5,64.0,95,88,77,29.95,29.89,11,3,13,0.17
2013-8-9,82.0,75.0,72.0,74.0,71.3,69.0,93,89,77,29.90,29.68,16,3,16,0.01
2013-8-10,86.0,75.9,67.0,71.0,62.4,56.0,94,66,40,29.89,29.70,11,1,11,0.00
2013-8-11,84.0,71.1,59.0,63.0,55.3,44.0,85,60,30,29.99,29.88,9,1,9,0.00
2013-8-12,80.0,71.6,67.0,70.0,66.8,61.0,95,86,68,29.90,29.78,7,0,7,0.08
2013-8-13,75.0,69.8,67.0,72.0,68.2,65.0,100,95,78,29.79,29.57,7,0,8,0.50
2013-8-14,77.0,68.0,60.0,67.0,54.5,47.0,96,66,38,29.86,29.57,15,2,15,0.03
2013-8-15,82.0,66.6,53.0,61.0,51.7,41.0,96,64,27,30.00,29.85,10,1,10,0.00
2013-8-16,83.0,69.2,57.0,64.0,55.5,47.0,97,66,34,30.05,29.95,9,1,9,0.00
2013-8-17,85.0,70.5,58.0,62.0,57.1,50.0,99,67,32,30.16,30.04,8,1,8,0.00
2013-8-18,79.0,68.6,61.0,63.0,58.9,52.0,90,73,40,30.11,29.96,8,0,9,0.02
2013-8-19,82.0,70.0,59.0,63.0,59.1,55.0,90,71,47,29.97,29.88,10,1,10,0.00
2013-8-20,90.0,73.7,62.0,68.0,62.1,54.0,100,71,31,30.01,29.88,10,1,10,0.00
2013-8-21,90.0,76.2,66.0,71.0,64.0,54.0,100,72,32,30.06,29.91,9,1,10,0.00
2013-8-22,83.0,72.7,69.0,73.0,69.0,66.0,95,89,69,29.92,29.72,10,1,10,0.23
2013-8-23,82.0,73.1,65.0,69.0,61.5,54.0,96,71,41,29.94,29.71,13,1,13,0.00
2013-8-24,84.0,68.9,60.0,62.0,55.5,46.0,91,66,27,30.17,29.94,13,1,13,0.00
2013-8-25,85.0,69.3,56.0,67.0,56.1,49.0,100,68,31,30.26,30.08,10,1,10,0.00
2013-8-26,81.0,71.7,67.0,68.0,62.1,55.0,89,73,54,30.08,29.78,11,2,11,0.07
2013-8-27,85.0,73.8,69.0,71.0,67.6,66.0,95,83,56,29.78,29.66,12,1,12,0.11
2013-8-28,88.0,75.7,67.0,76.0,67.6,65.0,100,79,49,29.78,29.70,8,1,9,0.00
2013-8-29,80.0,70.9,65.0,68.0,64.8,61.0,94,82,59,29.89,29.74,10,1,12,0.00
2013-8-30,83.0,71.6,64.0,69.0,65.5,60.0,92,83,62,29.88,29.73,10,2,10,0.00
2013-8-31,84.0,74.6,70.0,72.0,69.4,67.0,93,85,66,29.74,29.68,9,3,10,0.00
2013-9-1,81.0,74.8,72.0,74.0,71.1,69.0,93,89,78,29.74,29.68,10,2,10,0.06
2013-9-2,78.0,73.8,70.0,74.0,71.2,68.0,96,92,86,29.69,29.57,7,1,7,0.05
2013-9-3,82.0,72.3,66.0,72.0,65.8,56.0,100,82,51,29.72,29.56,10,1,11,0.30
2013-9-4,85.0,70.0,58.0,65.0,56.4,44.0,96,67,28,29.85,29.71,9,1,9,0.00
2013-9-5,80.0,68.3,58.0,63.0,53.7,40.0,93,63,32,29.96,29.75,15,1,15,0.00
2013-9-6,76.0,62.0,53.0,49.0,45.1,40.0,82,56,29,30.09,29.95,10,1,11,0.00
2013-9-7,78.0,64.9,52.0,61.0,50.7,42.0,88,64,32,29.95,29.75,10,1,10,0.00
2013-9-8,83.0,70.8,61.0,63.0,56.4,43.0,93,63,36,29.91,29.65,12,2,12,0.00
2013-9-9,72.0,62.7,51.0,58.0,48.2,42.0,90,62,35,30.10,29.90,11,1,11,0.00
2013-9-10,79.0,70.9,62.0,71.0,66.3,58.0,94,87,72,30.03,29.94,12,2,12,0.00
2013-9-11,90.0,77.7,70.0,75.0,70.7,68.0,96,81,55,30.00,29.87,10,2,11,0.00
2013-9-12,81.0,73.9,69.0,73.0,70.1,67.0,96,90,72,29.87,29.55,12,2,13,0.88
2013-9-13,78.0,69.1,60.0,71.0,62.4,50.0,100,81,49,29.65,29.47,13,2,14,0.05
2013-9-14,71.0,60.5,53.0,52.0,49.4,46.0,82,68,43,29.92,29.64,14,2,16,0.00
2013-9-15,74.0,59.5,47.0,58.0,50.3,45.0,100,75,41,30.05,29.92,8,1,8,0.00
2013-9-16,74.0,63.0,58.0,61.0,55.1,45.0,99,78,46,30.04,29.86,12,1,12,0.00
2013-9-17,67.0,54.5,47.0,45.0,39.0,35.0,88,58,33,30.24,30.04,15,2,17,0.00
2013-9-18,74.0,57.4,45.0,55.0,46.2,39.0,100,71,36,30.17,30.01,9,1,9,0.00
2013-9-19,78.0,61.8,49.0,58.0,52.0,45.0,100,75,34,30.02,29.91,9,1,9,0.00
2013-9-20,80.0,64.9,52.0,61.0,56.6,52.0,100,79,41,29.96,29.84,9,1,9,0.00
2013-9-21,77.0,67.7,56.0,68.0,64.3,56.0,100,90,70,29.85,29.55,16,3,16,0.00
2013-9-22,72.0,64.5,55.0,68.0,55.2,41.0,100,75,43,29.71,29.49,14,2,15,0.82
2013-9-23,67.0,56.6,50.0,46.0,41.7,38.0,73,59,39,29.85,29.71,14,2,15,0.00
2013-9-24,73.0,57.1,46.0,50.0,44.5,38.0,90,66,34,29.85,29.69,12,1,13,0.00
2013-9-25,76.0,59.1,47.0,59.0,48.9,43.0,100,73,33,29.80,29.72,9,0,9,0.00
2013-9-26,72.0,59.3,51.0,60.0,53.5,50.0,100,83,47,29.91,29.75,9,1,10,0.00
2013-9-27,66.0,58.3,49.0,60.0,51.8,49.0,100,81,57,30.10,29.91,10,1,11,0.00
2013-9-28,75.0,61.6,53.0,60.0,53.7,50.0,100,78,45,30.17,30.05,12,1,12,0.00
2013-9-29,75.0,58.9,49.0,63.0,49.0,33.0,100,76,24,30.06,29.89,10,1,11,0.00
2013-9-30,75.0,59.5,48.0,61.0,54.0,47.0,100,85,39,29.91,29.81,9,1,9,0.00
2013-10-1,83.0,64.9,52.0,64.0,55.1,49.0,100,76,36,29.85,29.76,10,1,10,0.00
2013-10-2,84.0,68.4,56.0,63.0,59.1,56.0,100,76,42,29.84,29.76,13,1,13,0.00
2013-10-3,78.0,66.1,54.0,65.0,54.8,43.0,100,72,34,29.99,29.84,7,1,7,0.00
2013-10-4,84.0,68.6,60.0,69.0,63.4,59.0,100,86,53,29.92,29.85,10,1,10,0.00
2013-10-5,79.0,67.2,63.0,65.0,63.5,62.0,100,90,58,29.95,29.85,8,1,9,0.00
2013-10-6,67.0,64.3,63.0,66.0,64.3,63.0,100,100,98,29.96,29.90,7,1,7,0.01
2013-10-7,75.0,68.5,61.0,71.0,66.6,53.0,100,94,74,29.90,29.69,18,3,18,0.10
2013-10-8,68.0,58.6,51.0,54.0,45.4,40.0,95,64,39,30.13,29.79,17,2,17,0.00
2013-10-9,65.0,56.9,51.0,50.0,47.0,42.0,83,70,53,30.22,30.11,14,1,14,0.00
2013-10-10,66.0,59.0,54.0,59.0,54.8,48.0,98,87,76,30.11,29.91,17,2,17,0.03
2013-10-11,68.0,63.1,60.0,60.0,58.2,54.0,95,85,74,29.93,29.85,15,2,15,0.00
2013-10-12,71.0,61.9,54.0,57.0,49.5,35.0,93,67,28,30.12,29.91,17,2,17,0.09
2013-10-13,65.0,57.0,50.0,53.0,50.5,47.0,93,80,55,30.22,30.10,16,2,16,0.00
2013-10-14,64.0,53.5,46.0,53.0,48.0,44.0,100,83,55,30.18,30.07,8,1,8,0.00
2013-10-15,74.0,55.4,44.0,57.0,48.1,41.0,100,81,34,30.07,29.93,8,1,8,0.00
2013-10-16,70.0,60.3,51.0,61.0,56.3,50.0,100,88,67,29.93,29.75,7,0,7,0.00
2013-10-17,75.0,64.1,60.0,64.0,61.6,60.0,100,93,66,29.75,29.56,12,2,12,0.00
2013-10-18,69.0,60.6,51.0,64.0,50.3,42.0,100,71,39,29.77,29.51,15,2,15,0.01
2013-10-19,66.0,55.0,44.0,59.0,47.4,41.0,100,78,42,29.81,29.57,9,1,10,0.02
2013-10-20,64.0,54.4,46.0,59.0,42.4,35.0,100,67,35,29.85,29.56,8,1,14,0.01
2013-10-21,67.0,53.0,41.0,49.0,41.0,33.0,93,67,33,29.95,29.81,10,1,10,0.00
2013-10-22,67.0,56.4,48.0,56.0,48.1,42.0,100,76,52,29.81,29.57,10,1,10,0.00
2013-10-23,52.0,47.8,42.0,46.0,38.8,33.0,91,72,51,29.61,29.41,11,1,11,0.02
2013-10-24,55.0,45.3,38.0,38.0,31.5,26.0,94,61,33,29.77,29.52,15,1,15,0.00
2013-10-25,53.0,43.5,36.0,36.0,31.4,28.0,89,63,41,29.99,29.76,15,1,15,0.00
2013-10-26,56.0,46.5,34.0,38.0,33.6,28.0,96,63,40,29.99,29.72,15,2,17,0.00
2013-10-27,59.0,49.4,41.0,40.0,33.9,29.0,78,56,34,29.89,29.65,13,1,13,0.00
2013-10-28,62.0,49.4,35.0,38.0,34.0,31.0,96,59,31,30.11,29.89,12,1,12,0.00
2013-10-29,54.0,45.6,38.0,38.0,33.5,31.0,85,64,43,30.21,30.11,8,1,10,0.00
2013-10-30,60.0,50.5,39.0,54.0,45.1,35.0,99,82,64,30.14,30.01,7,0,9,0.00
2013-10-31,65.0,57.7,48.0,62.0,56.0,48.0,100,95,80,30.03,29.68,12,2,12,0.00
2013-11-1,65.0,61.8,57.0,64.0,60.3,57.0,100,96,77,29.68,29.40,19,4,19,0.05
2013-11-2,67.0,57.0,50.0,57.0,48.9,40.0,100,77,39,29.57,29.44,7,1,7,0.00
2013-11-3,51.0,45.6,36.0,46.0,35.0,21.0,97,67,47,30.19,29.57,17,3,17,0.00
2013-11-4,46.0,37.2,33.0,28.0,22.1,18.0,77,54,33,30.43,30.19,15,2,15,0.00
2013-11-5,56.0,43.8,34.0,41.0,34.8,28.0,90,71,49,30.45,30.29,8,1,8,0.00
2013-11-6,60.0,54.1,42.0,56.0,48.8,41.0,100,84,56,30.30,29.90,10,2,10,0.00
2013-11-7,63.0,55.4,42.0,62.0,53.0,29.0,100,93,57,29.90,29.57,13,2,17,0.19
2013-11-8,49.0,42.4,37.0,33.0,28.3,23.0,86,58,37,29.97,29.69,16,2,16,0.00
2013-11-9,49.0,42.2,32.0,38.0,29.3,24.0,83,61,38,30.05,29.82,10,1,10,0.00
2013-11-10,61.0,49.6,42.0,40.0,34.6,28.0,77,57,30,29.82,29.61,19,2,19,0.00
2013-11-11,54.0,47.8,40.0,36.0,29.5,24.0,60,49,33,29.97,29.77,15,2,15,0.00
2013-11-12,51.0,37.8,30.0,38.0,28.3,18.0,100,68,53,30.01,29.72,15,4,15,0.15
2013-11-13,38.0,30.8,26.0,21.0,17.2,11.0,71,56,36,30.09,30.00,15,2,17,0.00
2013-11-14,52.0,39.3,28.0,26.0,20.2,16.0,73,48,23,30.01,29.94,13,1,14,0.01
2013-11-15,55.0,44.0,35.0,43.0,35.1,26.0,100,72,45,30.05,29.97,8,1,9,0.00
2013-11-16,58.0,46.8,39.0,47.0,42.5,36.0,100,86,57,30.13,30.00,10,1,10,0.02
2013-11-17,61.0,54.6,42.0,61.0,54.6,42.0,100,100,100,30.06,29.63,7,1,10,0.03
2013-11-18,66.0,58.5,51.0,60.0,43.7,26.0,100,64,29,29.63,29.44,16,2,16,0.16
2013-11-19,51.0,43.3,34.0,29.0,25.7,23.0,63,49,39,30.09,29.55,17,4,17,0.00
2013-11-20,44.0,34.2,26.0,23.0,19.3,14.0,87,54,29,30.36,30.09,19,2,19,0.00
2013-11-21,50.0,43.2,26.0,43.0,33.7,21.0,88,70,54,30.38,30.18,9,1,9,0.00
2013-11-22,54.0,51.7,47.0,54.0,51.1,42.0,100,98,84,30.18,29.68,9,1,9,0.07
2013-11-23,53.0,42.7,29.0,51.0,27.8,11.0,95,56,33,29.77,29.66,17,4,17,0.01
2013-11-24,30.0,25.1,22.0,14.0,5.6,-6.0,55,40,21,30.07,29.70,20,6,22,0.00
2013-11-25,37.0,27.5,19.0,21.0,13.9,8.0,75,55,29,30.22,30.07,12,2,12,0.00
2013-11-26,52.0,39.0,33.0,52.0,28.3,18.0,100,67,42,30.10,29.61,12,2,13,0.32
2013-11-27,61.0,49.2,35.0,61.0,48.5,24.0,100,97,65,29.61,29.06,23,5,23,0.62
2013-11-28,36.0,30.0,23.0,24.0,16.7,11.0,76,56,37,30.22,29.44,19,3,23,0.01
2013-11-29,41.0,31.0,24.0,23.0,18.9,16.0,83,60,41,30.47,30.21,11,1,11,0.00
2013-11-30,40.0,30.0,21.0,36.0,21.4,14.0,94,70,43,30.51,30.14,9,1,9,0.00
2013-12-1,51.0,43.3,39.0,47.0,41.3,36.0,100,93,75,30.14,29.78,8,1,8,0.19
2013-12-2,52.0,40.3,34.0,43.0,38.6,35.0,100,95,67,29.78,29.65,6,0,7,0.00
2013-12-3,54.0,40.7,33.0,44.0,36.5,33.0,100,87,49,29.76,29.64,9,1,9,0.00
2013-12-4,53.0,42.0,31.0,47.0,38.5,31.0,100,89,57,29.93,29.76,8,0,8,0.00
2013-12-5,59.0,53.9,47.0,59.0,53.8,47.0,100,100,96,29.93,29.75,12,2,12,0.00
2013-12-6,56.0,46.3,36.0,56.0,46.0,36.0,100,99,79,29.90,29.70,15,4,15,0.46
2013-12-7,41.0,35.6,31.0,36.0,31.1,18.0,100,84,60,30.25,29.83,16,3,16,0.31
2013-12-8,33.0,29.9,26.0,31.0,23.8,18.0,100,77,58,30.34,30.14,11,1,11,0.00
2013-12-9,44.0,37.0,30.0,44.0,37.1,31.0,100,100,100,30.14,29.70,15,2,15,0.29
2013-12-10,36.0,31.6,27.0,35.0,31.1,21.0,100,97,73,29.85,29.59,12,1,13,0.07
2013-12-11,36.0,28.0,23.0,21.0,18.1,16.0,77,66,47,30.06,29.85,12,2,13,0.00
2013-12-12,29.0,22.8,17.0,18.0,11.7,8.0,82,60,38,30.08,29.90,15,2,15,0.00
2013-12-13,36.0,26.4,18.0,23.0,13.8,8.0,78,57,41,30.08,29.87,15,1,16,0.00
2013-12-14,41.0,25.8,21.0,40.0,24.3,18.0,100,92,72,30.26,29.60,15,2,15,0.01
2013-12-15,45.0,36.3,31.0,45.0,33.1,23.0,100,88,68,29.60,29.20,21,3,21,1.90
2013-12-16,32.0,26.3,18.0,24.0,15.0,8.0,82,60,39,29.97,29.57,15,2,15,0.01
2013-12-17,33.0,25.0,18.0,33.0,23.2,14.0,100,91,63,29.99,29.66,13,2,13,0.00
2013-12-18,37.0,28.1,22.0,26.0,23.8,21.0,100,83,54,29.91,29.65,14,2,15,0.00
2013-12-19,48.0,35.4,23.0,35.0,27.2,21.0,96,72,43,29.93,29.81,17,2,17,0.25
2013-12-20,49.0,42.9,34.0,46.0,38.1,31.0,100,84,57,29.89,29.77,12,3,12,0.09
2013-12-21,58.0,49.9,45.0,53.0,48.6,45.0,100,95,75,29.82,29.73,16,4,17,0.00
2013-12-22,60.0,55.8,53.0,59.0,55.3,53.0,100,98,88,29.81,29.67,20,6,20,0.00
2013-12-23,57.0,51.9,40.0,57.0,51.8,38.0,100,100,90,29.95,29.69,16,2,16,0.43
2013-12-24,40.0,34.6,26.0,38.0,25.9,14.0,100,70,49,30.12,29.84,20,4,20,0.00
2013-12-25,26.0,22.5,18.0,16.0,12.0,8.0,79,61,47,32.74,29.35,13,2,13,0.00
2013-12-26,40.0,29.7,23.0,31.0,24.5,14.0,97,80,56,32.73,20.38,12,1,12,0.01
2013-12-27,43.0,31.0,23.0,26.0,21.3,16.0,96,68,37,32.72,16.29,12,1,12,0.00
2013-12-28,54.0,39.6,28.0,39.0,31.5,24.0,100,75,39,30.04,29.86,18,3,18,0.00
2013-12-29,53.0,42.8,39.0,53.0,40.2,32.0,100,91,71,29.86,29.16,20,2,20,1.47
2013-12-30,44.0,34.6,21.0,43.0,29.4,14.0,100,81,55,29.93,29.45,13,2,15,0.00
2013-12-31,31.0,24.2,18.0,24.0,16.1,11.0,83,68,48,30.01,29.81,13,2,15,0.00
2014-1-1,33.0,26.3,18.0,23.0,15.4,11.0,76,61,49,30.17,30.01,9,1,9,0.00
2014-1-2,31.0,26.2,16.0,28.0,25.3,16.0,100,95,68,30.02,29.40,17,4,17,0.00